Погода в Яшкуле

Хотите узнать прогноз погоды в Яшкуле? Тогда Вам сюда: Погода в Яшкуле

Поиск расширенной информации на нашем сайте:

Полезная информация:

Новости сайта



02.01.2020
Опубликован Долгосрочный прогноз погоды по городам России и ближнего зарубежья на январь 2020 года.
Карты: Прогноз на январь и февраль 2020 года, Сравнение прогнозируемой аномалии приземной температуры воздуха на январь 2020 года по разным моделям.




Погода в Яшкуле - сегодня

Время (UTC), дата Ветер
(°,м/с) 
Видим.   Явления Облачность Т
(°С)
Тd
(°С)
f(%) Тe
(°С)
Pmin
(гПа)
dP
(гПа)
Po
(мм)
O2
(г/м3)
Тmin Tmax R s Состояние
почвы
09 26.02.20 260 (З) 20000 м    8/8 300 м 
[St]
+8.9 -2.9 43 +8  1017.7  -0.8  764  298           
12 26.02.20 220 (ЮЗ) 20000 м    ясно 
+10 -5.4 33 +10  1016.7  -0.9  763  297           
15 26.02.20 150 (ЮВ) 20000 м    ясно 
+7.2 -4.4 43 +7  1016.5  -0.2  763  300    +10.2       
18 26.02.20 160 (Ю) 20000 м    ясно 
+3.4 -4.1 58 +2  1016.7  0.2  763  304           
21 26.02.20 150 (ЮВ) 20000 м    ясно 
+1.7 -1.4 80 1015.8  -0.9  763  306           
00 27.02.20 130 (ЮВ) 4000 м  дымка  ясно 
-0.6 -1 97 -1  1014.6  -1.3  762  308           
03 27.02.20 140 (ЮВ) 0500 м  туман  ?/?  
+1.1 -1.1 85 -1  1013.5  -1.2  761  305  -0.8         
06 27.02.20 140 (ЮВ) 0500 м  туман  н/о 
+2.5 +2.5 100 +3  1014.3  0.8  761  304           
09 27.02.20 140 (ЮВ) 5{10}  20000 м  {туман}  8/0 верхняя 
[Ci fib]
+9.9 +2.8 61 +9  1012.3  -2  760  295           
12 27.02.20 140 (ЮВ) 5{11}  20000 м  {туман}  8/0 верхняя 
[Ci fib]
+16.5 +0 33 +16  1010.5  -1.8  758  288           
15 27.02.20 140 (ЮВ) 20000 м  {туман}  6/0 верхняя 
[Ci fib]
+10.7 +3 59 +11  1011.1  0.6  759  294    +16.5       
18 27.02.20 100 (В) 20000 м    10/0 средняя 
[Ac As]
+5.2 +3.3 88 +5  1011.1  759  300           
21 27.02.20 110 (В) 4000 м  дымка  10/0 средняя 
[Ac As]
+4.4 +4.2 99 +3  1009.6  -1.5  758  300           
00 28.02.20 110 (В) 0500 м  туман  н/о 
+5 +5 100 +3  1008.7  -0.9  757  299           
03 28.02.20 100 (В) 0500 м  туман  н/о 
+5.4 +5.4 100 +4  1007.1  -1.6  756  298  +4         
06 28.02.20 100 (В) 4000 м  дымка{туман}  10/0 средняя 
[Ac As]
+6.4 +5.5 94 +5  1006.2  -0.9  755  296           
09 28.02.20 150 (ЮВ) 20000 м  {туман}  10/6 300 м средняя 
[St|Ac As]
+8.6 +5.2 79 +8  1005.6  -0.6  755  294           
12 28.02.20 тихо ()   20000 м    8/6 300 м средняя 
[St|Ac und]
+9.5 +4.4 70 +10  1005  -0.6  754  293           
15 28.02.20 230 (ЮЗ) 20000 м    8/0 средняя, верхняя 
[Ac trans|Ci fib]
+9.5 +4.9 73 +10  1008.1  3.1  757  294    +10.4       
18 28.02.20 250 (З) 6-14{14}  20000 м    ясно 
+7.4 +1.3 65 +5  1009.5  1.4  758  297           
21 28.02.20 270 (З) 7-14{20}  20000 м    ясно 
+5.4 -0.8 64 +3  1011.6  2.1  759  300           
00 29.02.20 280 (З) 6-14{15}  20000 м    6/6 300 м 
[St]
+4.4 -1.2 67 +2  1013.4  1.8  761  302           
03 29.02.20 270 (З) 3{15}  20000 м    ясно 
+1.3 -1.7 80 1015.4  762  306  +1.3         
06 29.02.20 290 (З) 20000 м    8/0 верхняя 
[Ci fib]
+3.4 -1 73 +3  1016.5  1.2  763  304  -0.1         
09 29.02.20 тихо ()   20000 м    8/0 верхняя 
[Ci fib]
+7 -1.8 53 +7  1015.8  1.2  763  300           
Время (UTC), дата Ветер
(°,м/с) 
Видим.   Явления Облачность Т
(°С)
Тd
(°С)
f(%) Тe
(°С)
Pmin
(гПа)
dP
(гПа)
Po
(мм)
O2
(г/м3)
Тmin Tmax R s Состояние
почвы

Для получения пояснительной информации подведите курсор к названию столбца.

ПОГОДА в Яшкуле - архив

Всё, что Вы хотите узнать о погоде в Яшкуле - удобно и подробно!

Выберите нужную дату (начиная с 1 января 2019* года) и нажмите кнопку "Найти".
Будут отображены архивные сводки погоды по пункту Яшкуль, начиная с указанной даты.


Отображать данные в формате CSV (для использования в таблицах Excel)


Внимание! Наш архив погоды предназначен исключительно для личного некоммерческого использования в познавательных целях. Если Вам необходимы официальные справки о состоянии погоды (для производственных, юридических, коммерческих и т.п. целей), обращайтесь в органы Росгидромета.

*Примечание: данная дата относится к архиву по метеостанциям СССР (Россия, СНГ, Балтия).
Архив по метеостанциям Зарубежной Европы и Азии (кроме Китая) хранится 10 дней, по другим регионам земного шара (Китай, Африка, Америка, Австралия, Океания) - 1 день.

Яшкуль - район местоположения метеостанции


Название, широта, долгота, высота метеостанции:
Яшкуль 46.2°ш. 45.3°д. -7 м над ур. моря [Российская Федерация]

Дополнительная информация

В oтличие oт бoльшинства пoгoдных сайтoв мы публикуем пoдрoбную метеoинфoрмацию в детальнoм прoфессиoнальнoм фoрмате.

Характеристики температуры и влажнoсти вoздуха измеряются на высoте 2 м в тени вдали oт зданий и деревьев.
Скoрoсть ветра измеряется на высoте 10 м (на урoвне рoста челoвека скoрoсть ветра ниже в 1.5-2 раза). Если метеoстанция нахoдится в гoрoде или в лесу, тo скoрoсть ветра занижена на 2-4 м/с пo сравнению с oткрытым местoм. Скoрoсть ветра над акватoриями крупных рек и oзёр, а также на вершинах хoлмoв на 2-5 м/с выше, чем в oбычных услoвиях.
Атмoсфернoе давление в разных тoчках местнoсти мoжет значительнo oтличаться oт давления на метеoстанции, в зависимoсти oт услoвий рельефа (при пoдъёме на 10 м давление пoнижается примернo на 1 мм рт.ст.).